GW5187 Weather Reports


time (UTC)temp
C
wind
direction
speed
KPH
gust
KPH
rain 1hr
cm
rain 24hr
cm
rain mn
cm
humidity
%
barometer
mb
20260901141016 12 346 0.0 0.0 0.00 0.00 0.00 80 1016.5
20260901140512 12 340 0.0 0.0 0.00 0.00 0.00 81 1016.4
20260901140041 12 61 0.0 0.0 0.00 0.00 0.00 80 1016.5
20260901135516 12 55 0.0 0.0 0.00 0.00 0.00 80 1016.5
20260901135015 12 55 0.0 0.0 0.00 0.00 0.00 80 1016.4
20260901134508 12 5 0.0 0.0 0.00 0.00 0.00 80 1016.3
20260901134004 12 5 0.0 0.0 0.00 0.00 0.00 80 1016.3
20260901133507 12 173 0.0 0.0 0.00 0.00 0.00 80 1016.3
20260901133016 12 84 0.0 0.0 0.00 0.00 0.00 80 1016.3
20260901132510 12 51 0.0 0.0 0.00 0.00 0.00 80 1016.3
20260901132009 12 336 0.0 0.0 0.00 0.00 0.00 80 1016.2
20260901131520 12 248 0.0 0.0 0.00 0.00 0.00 80 1016.1
20260901131010 12 50 0.0 0.0 0.00 0.00 0.00 80 1016.1
20260901130512 12 128 0.0 0.0 0.00 0.00 0.00 81 1016.1
20260901130037 12 103 0.0 0.0 0.00 0.00 0.00 81 1016.1
20260901125514 12 169 0.0 0.0 0.00 0.00 0.00 80 1016.1
20260901125016 12 169 0.0 0.0 0.00 0.00 0.00 80 1016.2
20260901124532 12 131 0.0 0.0 0.00 0.00 0.00 80 1016.2
20260901124015 12 208 0.0 0.0 0.00 0.00 0.00 80 1016.2
20260901123506 12 208 0.0 0.0 0.00 0.00 0.00 80 1016.1
20260901123019 12 215 0.0 0.0 0.00 0.00 0.00 81 1016.1
20260901122506 12 144 0.0 0.0 0.00 0.00 0.00 81 1016.0
20260901122007 12 139 0.0 0.0 0.00 0.00 0.00 81 1015.9
20260901121519 12 96 0.0 0.0 0.00 0.00 0.00 82 1016.0
20260901121012 12 148 0.0 0.0 0.00 0.00 0.00 82 1016.0
20260901120510 12 133 0.0 0.0 0.00 0.00 0.00 82 1016.0
20260901120042 12 176 0.0 0.0 0.00 0.00 0.00 82 1015.9
20260901115512 12 176 0.0 0.0 0.00 0.00 0.00 82 1016.0
20260901115016 12 176 0.0 0.0 0.00 0.00 0.00 82 1015.9
20260901114530 12 176 0.0 0.0 0.00 0.00 0.00 82 1015.9
20260901114016 12 176 0.0 0.0 0.00 0.00 0.00 82 1016.1
20260901113515 12 176 0.0 0.0 0.00 0.00 0.00 82 1016.1
20260901113035 12 176 0.0 0.0 0.00 0.00 0.00 82 1016.0
20260901112515 12 176 0.0 0.0 0.00 0.00 0.00 82 1016.1
20260901112007 12 176 0.0 0.0 0.00 0.00 0.00 82 1016.1
20260901111515 12 176 0.0 0.0 0.00 0.00 0.00 81 1016.1
20260901111008 12 176 0.0 0.0 0.00 0.00 0.00 81 1016.0
20260901110511 12 176 0.0 0.0 0.00 0.00 0.00 81 1015.9
20260901110019 12 176 0.0 0.0 0.00 0.00 0.00 81 1015.9
20260901105511 12 176 0.0 0.0 0.00 0.00 0.00 81 1015.8
20260901105015 12 176 0.0 0.0 0.00 0.00 0.00 81 1015.9
20260901104528 12 176 0.0 0.0 0.00 0.00 0.00 81 1015.8
20260901104017 12 176 0.0 0.0 0.00 0.00 0.00 81 1015.7
20260901103518 12 176 0.0 0.0 0.00 0.00 0.00 81 1015.7
20260901103035 12 176 0.0 1.6 0.00 0.00 0.00 81 1015.6
20260901102517 12 176 0.0 3.2 0.00 0.00 0.00 81 1015.7
20260901102016 12 176 0.0 3.2 0.00 0.00 0.00 81 1015.7
20260901101533 12 176 0.0 3.2 0.00 0.00 0.00 82 1015.7
20260901101008 12 251 0.0 3.2 0.00 0.00 0.00 81 1015.7
20260901100508 12 251 0.0 1.6 0.00 0.00 0.00 80 1015.7
20260901100018 12 251 0.0 0.0 0.00 0.00 0.00 80 1015.7
20260901095509 12 251 0.0 0.0 0.00 0.00 0.00 80 1015.7
20260901095010 12 251 0.0 0.0 0.00 0.00 0.00 79 1015.7
20260901094528 13 251 0.0 3.2 0.00 0.00 0.00 79 1015.7
20260901094013 13 251 0.0 3.2 0.00 0.00 0.00 79 1015.7
20260901093516 13 251 0.0 1.6 0.00 0.00 0.00 80 1015.8
20260901093030 13 251 0.0 1.6 0.00 0.00 0.00 79 1015.8
20260901092504 13 251 0.0 3.2 0.00 0.00 0.00 80 1015.7
20260901092004 13 251 0.0 3.2 0.00 0.00 0.00 81 1015.8
20260901091510 13 275 0.0 3.2 0.00 0.00 0.00 82 1015.8
20260901091006 13 115 0.0 0.0 0.00 0.00 0.00 1015.7
20260901090507 13 115 0.0 0.0 0.00 0.00 0.00 84 1015.7
20260901090015 13 115 0.0 0.0 0.00 0.00 0.00 84 1015.7
20260901085509 13 115 0.0 0.0 0.00 0.00 0.00 84 1015.7
20260901085009 13 115 0.0 0.0 0.00 0.00 0.00 85 1015.6
20260901084517 13 115 0.0 0.0 0.00 0.00 0.00 85 1015.7
20260901084011 13 115 0.0 0.0 0.00 0.00 0.00 85 1015.7
20260901083512 13 115 0.0 0.0 0.00 0.00 0.00 85 1015.8
20260901083027 13 115 0.0 0.0 0.00 0.00 0.00 85 1015.8
20260901082514 13 115 0.0 0.0 0.00 0.00 0.00 86 1015.8
20260901082014 13 115 0.0 0.0 0.00 0.00 0.00 86 1015.9
20260901081509 13 115 0.0 0.0 0.00 0.00 0.00 87 1015.9
20260901081011 13 216 0.0 3.2 0.00 0.00 0.00 87 1015.9
20260901080505 13 216 0.0 3.2 0.00 0.00 0.00 87 1015.9
20260901080009 13 216 0.0 3.2 0.00 0.00 0.00 87 1015.8
20260901075508 13 216 0.0 3.2 0.00 0.00 0.00 87 1015.8
20260901075006 13 216 0.0 3.2 0.00 0.00 0.00 88 1015.9
20260901074517 13 259 0.0 3.2 0.00 0.00 0.00 88 1016.0
20260901074009 13 225 1.6 4.8 0.00 0.00 0.00 88 1015.9
20260901073510 13 215 3.2 4.8 0.00 0.00 0.00 88 1015.9
20260901073024 13 232 1.6 3.2 0.00 0.00 0.00 88 1016.0
20260901072513 13 232 0.0 3.2 0.00 0.00 0.00 88 1015.9
20260901072014 13 313 0.0 3.2 0.00 0.00 0.00 89 1015.9
20260901071531 13 246 0.0 3.2 0.00 0.00 0.00 89 1015.9
20260901071018 13 246 0.0 4.8 0.00 0.00 0.00 89 1015.9
20260901070504 13 246 0.0 4.8 0.00 0.00 0.00 89 1016.0
20260901070020 13 226 1.6 3.2 0.00 0.00 0.00 89 1016.0
20260901065506 13 209 0.0 3.2 0.00 0.00 0.00 89 1016.0
20260901065008 13 213 0.0 3.2 0.00 0.00 0.00 88 1016.0
20260901064516 13 233 0.0 3.2 0.00 0.00 0.00 88 1016.0
20260901064007 13 217 0.0 3.2 0.00 0.00 0.00 88 1016.0
20260901063511 13 217 1.6 3.2 0.00 0.00 0.00 88 1016.1
20260901063026 13 243 0.0 3.2 0.00 0.00 0.00 88 1016.1
20260901062510 13 243 0.0 3.2 0.00 0.00 0.00 88 1016.2
20260901062013 13 238 1.6 3.2 0.00 0.00 0.00 87 1016.1
20260901061528 13 218 0.0 3.2 0.00 0.00 0.00 87 1016.0
20260901061014 13 218 0.0 3.2 0.00 0.00 0.00 87 1016.1
20260901060517 13 218 0.0 3.2 0.00 0.00 0.00 87 1016.2
20260901060033 13 239 1.6 3.2 0.00 0.00 0.00 87 1016.2
20260901055521 13 207 1.6 3.2 0.00 0.00 0.00 87 1016.2
20260901055011 13 300 1.6 4.8 0.00 0.00 0.00 87 1016.2
20260901054514 13 236 0.0 8.0 0.00 0.00 0.00 86 1016.1
20260901054008 13 225 1.6 8.0 0.00 0.00 0.00 86 1016.3
20260901053510 13 194 3.2 8.0 0.00 0.00 0.00 86 1016.2
20260901053019 13 221 1.6 3.2 0.00 0.00 0.00 85 1016.2
20260901052510 13 265 0.0 1.6 0.00 0.00 0.00 85 1016.2
20260901052010 13 265 0.0 4.8 0.00 0.00 0.00 85 1016.3
20260901051525 13 282 0.0 4.8 0.00 0.00 0.00 85 1016.3
20260901051014 13 229 1.6 4.8 0.00 0.00 0.00 84 1016.3
20260901050513 13 217 0.0 4.8 0.00 0.00 0.00 84 1016.3
20260901050030 13 211 1.6 4.8 0.00 0.00 0.00 84 1016.2
20260901045514 13 212 0.0 3.2 0.00 0.00 0.00 84 1016.2
20260901045017 13 248 0.0 3.2 0.00 0.00 0.00 84 1016.2
20260901044539 13 248 0.0 3.2 0.00 0.00 0.00 84 1016.1
20260901044008 13 248 1.6 4.8 0.00 0.00 0.00 84 1016.1
20260901043510 13 248 1.6 4.8 0.00 0.00 0.00 84 1016.0
20260901043017 13 227 0.0 4.8 0.00 0.00 0.00 84 1016.0
20260901042508 13 218 1.6 6.4 0.00 0.00 0.00 84 1015.9
20260901042011 13 225 1.6 6.4 0.00 0.00 0.00 84 1015.7
20260901041522 13 284 3.2 6.4 0.00 0.00 0.00 1015.7
20260901041012 13 203 0.0 4.8 0.00 0.00 0.00 84 1015.6
20260901040514 13 204 1.6 6.4 0.00 0.00 0.00 84 1015.6
20260901040026 13 216 3.2 6.4 0.00 0.00 0.00 84 1015.5
20260901035513 14 220 1.6 4.8 0.00 0.00 0.00 83 1015.4
20260901035014 14 211 1.6 6.4 0.00 0.00 0.00 83 1015.3
20260901034531 14 242 3.2 6.4 0.00 0.00 0.00 83 1015.2
20260901034017 14 200 1.6 6.4 0.00 0.00 0.00 83 1015.3
20260901033518 14 222 1.6 8.0 0.00 0.00 0.00 83 1015.2
20260901033014 14 194 4.8 8.0 0.00 0.00 0.00 83 1015.3
20260901032508 14 219 3.2 8.0 0.00 0.00 0.00 83 1015.2
20260901032009 14 248 1.6 8.0 0.00 0.00 0.00 83 1015.2
20260901031523 14 237 4.8 12.9 0.00 0.00 0.00 83 1015.2
20260901031011 14 170 4.8 12.9 0.00 0.00 0.00 83 1015.3
20260901030511 14 215 3.2 9.7 0.00 0.00 0.00 82 1015.2
20260901030024 14 204 1.6 9.7 0.00 0.00 0.00 82 1015.2
20260901025513 14 250 3.2 8.0 0.00 0.00 0.00 82 1015.0
20260901025014 14 270 3.2 4.8 0.00 0.00 0.00 82 1014.9
20260901024532 14 229 1.6 6.4 0.00 0.00 0.00 82 1014.9
20260901024016 14 259 0.0 6.4 0.00 0.00 0.00 81 1014.9
20260901023513 14 234 1.6 9.7 0.00 0.00 0.00 81 1014.8
20260901023043 14 230 4.8 16.1 0.00 0.00 0.00 81 1014.9
20260901022515 14 203 4.8 16.1 0.00 0.00 0.00 81 1014.9
20260901022015 15 239 3.2 12.9 0.00 0.00 0.00 80 1015.0
20260901021523 15 231 4.8 12.9 0.00 0.00 0.00 80 1015.0
20260901021009 15 237 4.8 14.5 0.00 0.00 0.00 79 1015.0
20260901020510 15 205 6.4 14.5 0.00 0.00 0.00 79 1015.0
20260901020025 15 263 4.8 12.9 0.00 0.00 0.00 79 1014.8
20260901015511 15 260 4.8 12.9 0.00 0.00 0.00 78 1014.9
20260901015014 15 241 6.4 14.5 0.00 0.00 0.00 78 1014.8
20260901014528 15 211 3.2 17.7 0.00 0.00 0.00 78 1014.8
20260901014015 15 217 4.8 17.7 0.00 0.00 0.00 77 1014.9
20260901013516 15 227 8.0 17.7 0.00 0.00 0.00 77 1014.9
20260901013031 15 242 6.4 17.7 0.00 0.00 0.00 76 1014.9
20260901012513 15 238 6.4 17.7 0.00 0.00 0.00 77 1014.9
20260901012018 15 209 8.0 17.7 0.00 0.00 0.00 76 1014.9
20260901011534 15 257 4.8 20.9 0.00 0.00 0.00 76 1014.8
20260901011018 15 291 3.2 22.5 0.00 0.00 0.00 76 1014.8
20260901010510 15 205 11.3 22.5 0.00 0.00 0.00 75 1015.0
20260901010018 16 208 6.4 20.9 0.00 0.00 0.00 75 1014.9
20260901005512 16 244 6.4 20.9 0.00 0.00 0.00 74 1015.0
20260901005013 16 228 8.0 19.3 0.00 0.00 0.00 72 1015.0
20260901004532 16 217 11.3 24.1 0.00 0.00 0.00 71 1015.1
20260901004014 17 205 11.3 24.1 0.00 0.00 0.00 70 1015.0
20260901003512 17 161 11.3 20.9 0.00 0.00 0.00 68 1014.9
20260901003031 17 270 8.0 22.5 0.00 0.00 0.00 70 1015.0
20260901002517 17 221 11.3 22.5 0.00 0.00 0.00 69 1015.0
20260901002007 18 221 9.7 16.1 0.00 0.00 0.00 68 1014.9
20260901001511 18 209 6.4 19.3 0.00 0.00 0.00 68 1014.7
20260901001009 18 234 4.8 19.3 0.00 0.00 0.00 68 1014.7
20260901000506 18 226 9.7 19.3 0.00 0.00 0.00 67 1014.7
20260901000018 18 261 11.3 20.9 0.00 0.00 0.00 66 1014.7
20260831235510 18 165 11.3 22.5 0.00 0.00 0.00 66 1014.7
20260831235010 18 225 11.3 22.5 0.00 0.00 0.00 66 1014.9
20260831234525 18 170 11.3 24.1 0.00 0.00 0.00 67 1014.9
20260831234014 18 210 11.3 24.1 0.00 0.00 0.00 67 1014.9
20260831233512 17 236 12.9 29.0 0.00 0.00 0.00 67 1014.9
20260831233030 18 229 9.7 29.0 0.00 0.00 0.00 65 1014.9
20260831232515 18 232 4.8 22.5 0.00 0.00 0.00 66 1014.8
20260831232019 18 233 9.7 17.7 0.00 0.00 0.00 65 1014.8
20260831231533 18 215 9.7 27.4 0.00 0.00 0.00 66 1014.8
20260831231007 18 234 11.3 27.4 0.00 0.00 0.00 66 1014.7
20260831230506 18 329 8.0 27.4 0.00 0.00 0.00 66 1014.8
20260831230016 18 210 11.3 22.5 0.00 0.00 0.00 64 1014.8
20260831225508 18 198 11.3 22.5 0.00 0.00 0.00 64 1014.7
20260831225009 18 226 8.0 20.9 0.00 0.00 0.00 65 1014.7
20260831224524 18 236 12.9 20.9 0.00 0.00 0.00 66 1014.9
20260831224011 18 233 8.0 24.1 0.00 0.00 0.00 66 1014.9
20260831223514 18 217 12.9 22.5 0.00 0.00 0.00 66 1015.0
20260831223027 19 229 9.7 20.9 0.00 0.00 0.00 65 1015.0
20260831222516 18 229 9.7 24.1 0.00 0.00 0.00 66 1015.0
20260831222015 18 225 11.3 25.7 0.00 0.00 0.00 65 1015.0
20260831221532 18 214 6.4 25.7 0.00 0.00 0.00 66 1015.1
20260831221015 18 209 11.3 25.7 0.00 0.00 0.00 66 1015.1
20260831220514 19 250 8.0 22.5 0.00 0.00 0.00 65 1015.1
20260831220012 19 283 8.0 20.9 0.00 0.00 0.00 65 1015.2
20260831215508 19 194 11.3 20.9 0.00 0.00 0.00 64 1015.3
20260831215010 19 234 9.7 19.3 0.00 0.00 0.00 65 1015.5
20260831214517 19 242 11.3 22.5 0.00 0.00 0.00 64 1015.4
20260831214011 19 186 14.5 22.5 0.00 0.00 0.00 63 1015.3
20260831213511 20 225 6.4 22.5 0.00 0.00 0.00 61 1015.5
20260831213028 20 234 8.0 19.3 0.00 0.00 0.00 61 1015.5
20260831212512 20 284 4.8 19.3 0.00 0.00 0.00 62 1015.5
20260831212015 20 223 3.2 24.1 0.00 0.00 0.00 62 1015.6
20260831211531 19 205 1.6 24.1 0.00 0.00 0.00 65 1015.7
20260831211015 19 288 6.4 16.1 0.00 0.00 0.00 64 1015.7
20260831210513 18 266 4.8 16.1 0.00 0.00 0.00 65 1015.7
20260831210034 18 292 6.4 19.3 0.00 0.00 0.00 65 1015.7
20260831205518 18 273 9.7 19.3 0.00 0.00 0.00 64 1015.6
20260831205008 20 263 6.4 16.1 0.00 0.00 0.00 62 1015.6
20260831204518 20 275 3.2 12.9 0.00 0.00 0.00 63 1015.6
20260831204008 20 39 3.2 12.9 0.00 0.00 0.00 63 1015.6
20260831203511 19 253 4.8 12.9 0.00 0.00 0.00 63 1015.6
20260831203025 19 210 4.8 19.3 0.00 0.00 0.00 64 1015.6
20260831202511 19 288 4.8 19.3 0.00 0.00 0.00 64 1015.7
20260831202015 19 222 4.8 16.1 0.00 0.00 0.00 64 1015.6
20260831201530 19 281 6.4 16.1 0.00 0.00 0.00 64 1015.6
20260831201015 19 26 4.8 14.5 0.00 0.00 0.00 64 1015.8
20260831200516 20 281 8.0 14.5 0.00 0.00 0.00 64 1015.7
20260831200040 19 213 3.2 9.7 0.00 0.00 0.00 65 1015.6
20260831195517 19 192 1.6 14.5 0.00 0.00 0.00 66 1015.7
20260831195021 18 223 8.0 16.1 0.00 0.00 0.00 66 1015.7
20260831194532 18 194 3.2 16.1 0.00 0.00 0.00 67 1015.9
20260831194007 18 225 8.0 24.1 0.00 0.00 0.00 68 1016.0
20260831193510 17 232 4.8 24.1 0.00 0.00 0.00 68 1016.0
20260831193033 18 209 3.2 24.1 0.00 0.00 0.00 69 1016.1
20260831192512 17 212 6.4 24.1 0.00 0.00 0.00 69 1016.1
20260831192011 18 219 4.8 14.5 0.00 0.00 0.00 68 1016.1
20260831191534 18 227 4.8 12.9 0.00 0.00 0.00 69 1016.2
20260831191011 17 212 4.8 14.5 0.00 0.00 0.00 70 1016.2
20260831190516 17 203 6.4 14.5 0.00 0.00 0.00 71 1016.3
20260831190031 17 214 4.8 12.9 0.00 0.00 0.00 72 1016.4
20260831185516 16 237 3.2 12.9 0.00 0.00 0.00 74 1016.4
20260831185019 16 250 4.8 12.9 0.00 0.00 0.00 74 1016.5
20260831184531 16 200 3.2 12.9 0.00 0.00 0.00 75 1016.5
20260831184018 16 212 6.4 12.9 0.00 0.00 0.00 75 1016.4
20260831183520 16 184 3.2 12.9 0.00 0.00 0.00 76 1016.4
20260831183018 15 209 4.8 12.9 0.00 0.00 0.00 77 1016.5
20260831182510 15 220 4.8 14.5 0.00 0.00 0.00 78 1016.5
20260831182012 15 227 4.8 14.5 0.00 0.00 0.00 77 1016.6
20260831181526 15 238 4.8 11.3 0.00 0.00 0.00 77 1016.6
20260831181013 15 233 8.0 11.3 0.00 0.00 0.00 77 1016.5
20260831180514 15 29 3.2 11.3 0.00 0.00 0.00 77 1016.5
20260831180041 15 213 6.4 11.3 0.00 0.00 0.00 76 1016.5
20260831175512 15 309 0.0 6.4 0.00 0.00 0.00 77 1016.4
20260831175014 15 107 1.6 6.4 0.00 0.00 0.00 77 1016.4
20260831174534 15 292 0.0 6.4 0.00 0.00 0.00 78 1016.4
20260831174016 15 209 1.6 8.0 0.00 0.00 0.00 78 1016.4
20260831173518 15 174 1.6 8.0 0.00 0.00 0.00 79 1016.3
20260831173033 15 220 1.6 6.4 0.00 0.00 0.00 79 1016.3
20260831172515 15 206 4.8 6.4 0.00 0.00 0.00 79 1016.3
20260831172009 15 248 3.2 6.4 0.00 0.00 0.00 80 1016.3
20260831171524 14 130 0.0 6.4 0.00 0.00 0.00 81 1016.2
20260831171010 14 186 0.0 6.4 0.00 0.00 0.00 81 1016.2
20260831170515 14 109 3.2 6.4 0.00 0.00 0.00 82 1016.2
20260831170028 13 93 1.6 8.0 0.00 0.00 0.00 82 1016.1
20260831165511 13 181 0.0 8.0 0.00 0.00 0.00 83 1016.2
20260831165013 13 94 1.6 4.8 0.00 0.00 0.00 84 1016.1
20260831164545 13 111 1.6 8.0 0.00 0.00 0.00 84 1016.0
20260831164013 13 184 1.6 9.7 0.00 0.00 0.00 84 1016.0
20260831163517 13 90 1.6 9.7 0.00 0.00 0.00 85 1016.0
20260831163034 13 158 1.6 9.7 0.00 0.00 0.00 85 1016.0
20260831162517 12 122 3.2 9.7 0.00 0.00 0.00 86 1016.0
20260831162015 12 319 0.0 6.4 0.00 0.00 0.00 1016.1
20260831161534 12 108 3.2 6.4 0.00 0.00 0.00 1016.0
20260831161016 12 175 1.6 11.3 0.00 0.00 0.00 1016.0
20260831160511 12 203 3.2 11.3 0.00 0.00 0.00 89 1016.0
20260831160024 12 85 0.0 8.0 0.00 0.00 0.00 89 1016.0
20260831155511 12 38 0.0 8.0 0.00 0.00 0.00 89 1016.0
20260831155002 12 110 0.0 6.4 0.00 0.00 0.00 90 1015.9
20260831154516 12 56 0.0 3.2 0.00 0.00 0.00 90 1016.0
20260831154003 11 13 1.6 8.0 0.00 0.00 0.00 90 1015.9
20260831153505 11 360 0.0 8.0 0.00 0.00 0.00 91 1015.9
20260831153008 11 12 1.6 4.8 0.00 0.00 0.00 91 1015.8
20260831152506 11 126 0.0 4.8 0.00 0.00 0.00 91 1015.8
20260831152007 11 271 0.0 14.5 0.00 0.00 0.00 91 1015.9
20260831151516 11 360 0.0 14.5 0.00 0.00 0.00 91 1015.8
20260831151007 11 78 3.2 14.5 0.00 0.00 0.00 92 1015.7
20260831150510 11 249 1.6 6.4 0.00 0.00 0.00 92 1015.7
20260831150022 11 174 0.0 6.4 0.00 0.00 0.00 92 1015.6
20260831145511 11 41 0.0 8.0 0.00 0.00 0.00 92 1015.5
20260831145013 11 123 1.6 8.0 0.00 0.00 0.00 92 1015.5
20260831144527 11 298 0.0 6.4 0.00 0.00 0.00 93 1015.5
20260831144002 11 41 1.6 4.8 0.00 0.00 0.00 93 1015.5
20260831143501 11 57 0.0 4.8 0.00 0.00 0.00 93 1015.4
20260831143018 11 299 0.0 4.8 0.00 0.00 0.00 93 1015.3
20260831142504 11 293 1.6 4.8 0.00 0.00 0.00 93 1015.3
20260831142006 11 279 3.2 6.4 0.00 0.00 0.00 94 1015.2
20260831141511 11 43 1.6 6.4 0.00 0.00 0.00 93 1015.2